TimeEDT,TemperatureF,Dew PointF,Humidity,Sea Level PressureIn,VisibilityMPH,Wind Direction,Wind SpeedMPH,Gust SpeedMPH,PrecipitationIn,Events,Conditions,WindDirDegrees,DateUTC
12:53 AM,55.0,48.9,80,30.04,10.0,WNW,4.6,-,N/A,,Clear,300,2012-09-29 04:53:00
1:53 AM,53.1,48.9,86,30.05,10.0,NW,6.9,-,N/A,,Clear,320,2012-09-29 05:53:00
2:53 AM,53.1,48.9,86,30.06,10.0,Calm,Calm,-,N/A,,Clear,0,2012-09-29 06:53:00
3:53 AM,53.1,48.9,86,30.04,10.0,NNW,5.8,-,N/A,,Clear,330,2012-09-29 07:53:00
4:53 AM,52.0,48.9,89,30.03,10.0,North,3.5,-,N/A,,Clear,360,2012-09-29 08:53:00
5:53 AM,51.1,48.0,89,30.05,10.0,WNW,3.5,-,N/A,,Clear,290,2012-09-29 09:53:00
6:53 AM,50.0,48.0,93,30.06,10.0,Calm,Calm,-,N/A,,Clear,0,2012-09-29 10:53:00
7:53 AM,51.1,48.0,89,30.05,10.0,Calm,Calm,-,N/A,,Clear,0,2012-09-29 11:53:00
8:53 AM,53.1,48.9,86,30.06,10.0,WNW,3.5,-,N/A,,Clear,300,2012-09-29 12:53:00
9:53 AM,55.0,50.0,83,30.07,10.0,West,5.8,-,N/A,,Clear,270,2012-09-29 13:53:00
10:53 AM,57.9,48.0,70,30.07,10.0,NW,8.1,-,N/A,,Clear,310,2012-09-29 14:53:00
11:53 AM,64.0,48.0,56,30.04,10.0,North,11.5,-,N/A,,Clear,350,2012-09-29 15:53:00
12:53 PM,64.9,46.9,52,30.02,10.0,NNW,10.4,19.6,N/A,,Partly Cloudy,330,2012-09-29 16:53:00
1:53 PM,64.9,46.0,50,30.00,10.0,NW,9.2,-,N/A,,Mostly Cloudy,310,2012-09-29 17:53:00
2:53 PM,66.0,44.1,45,29.98,10.0,NNW,5.8,-,N/A,,Mostly Cloudy,330,2012-09-29 18:53:00
3:53 PM,64.0,45.0,50,29.97,10.0,NW,13.8,-,N/A,,Overcast,310,2012-09-29 19:53:00
4:53 PM,64.9,43.0,45,29.96,10.0,North,6.9,-,N/A,,Partly Cloudy,360,2012-09-29 20:53:00
5:53 PM,63.0,45.0,52,29.96,10.0,NW,6.9,-,N/A,,Scattered Clouds,310,2012-09-29 21:53:00
6:53 PM,61.0,46.9,60,29.97,10.0,West,3.5,-,N/A,,Mostly Cloudy,270,2012-09-29 22:53:00
7:53 PM,60.1,46.9,62,29.98,10.0,Calm,Calm,-,N/A,,Overcast,0,2012-09-29 23:53:00
8:53 PM,60.1,46.9,62,29.98,10.0,Calm,Calm,-,N/A,,Overcast,0,2012-09-30 00:53:00
9:53 PM,57.9,46.9,67,29.98,10.0,Calm,Calm,-,N/A,,Clear,0,2012-09-30 01:53:00
10:53 PM,55.9,48.9,77,29.97,10.0,Calm,Calm,-,N/A,,Clear,0,2012-09-30 02:53:00
11:53 PM,54.0,50.0,86,29.96,10.0,ESE,5.8,-,N/A,,Clear,110,2012-09-30 03:53:00